| time (UTC) | temp F | wind direction | speed MPH | gust MPH | rain 1hr in | rain 24hr in | rain mn in | humidity % | barometer mb |
| 20260506141022 | 0 | 203 | 10.0 | 11.0 | 0.00 | 0.00 | 0.00 | ||
| 20260506140525 | 0 | 203 | 11.0 | 13.0 | 0.00 | 0.00 | 0.00 | ||
| 20260506140022 | 0 | 203 | 11.0 | 14.0 | 0.00 | 0.00 | 0.00 | ||
| 20260506135525 | 0 | 203 | 12.0 | 13.0 | 0.00 | 0.00 | 0.00 | ||
| 20260506135021 | 0 | 203 | 12.0 | 14.0 | 0.00 | 0.00 | 0.00 | ||
| 20260506134544 | 0 | 203 | 13.0 | 15.0 | 0.00 | 0.00 | 0.00 | ||
| 20260506134021 | 0 | 203 | 14.0 | 17.0 | 0.00 | 0.00 | 0.00 | ||
| 20260506133522 | 0 | 203 | 15.0 | 17.0 | 0.00 | 0.00 | 0.00 | ||
| 20260506133021 | 0 | 203 | 16.0 | 19.0 | 0.00 | 0.00 | 0.00 | ||
| 20260506132521 | 0 | 203 | 18.0 | 23.0 | 0.00 | 0.00 | 0.00 | ||
| 20260506132021 | 0 | 203 | 17.0 | 21.0 | 0.00 | 0.00 | 0.00 | ||
| 20260506131521 | 0 | 225 | 16.0 | 20.0 | 0.00 | 0.00 | 0.00 | ||
| 20260506131022 | 0 | 203 | 17.0 | 21.0 | 0.00 | 0.00 | 0.00 | ||
| 20260506130521 | 0 | 203 | 17.0 | 21.0 | 0.00 | 0.00 | 0.00 | ||
| 20260506124022 | 0 | 203 | 17.0 | 20.0 | 0.00 | 0.00 | 0.00 | ||
| 20260506123523 | 0 | 203 | 18.0 | 21.0 | 0.00 | 0.00 | 0.00 | ||
| 20260506123021 | 0 | 203 | 19.0 | 23.0 | 0.00 | 0.00 | 0.00 | ||
| 20260506122542 | 0 | 203 | 18.0 | 24.0 | 0.00 | 0.00 | 0.00 | ||
| 20260506122021 | 0 | 203 | 17.0 | 21.0 | 0.00 | 0.00 | 0.00 | ||
| 20260506121542 | 0 | 203 | 18.0 | 24.0 | 0.00 | 0.00 | 0.00 | ||
| 20260506121021 | 0 | 203 | 20.0 | 23.0 | 0.00 | 0.00 | 0.00 | ||
| 20260506114021 | 0 | 203 | 17.0 | 23.0 | 0.00 | 0.00 | 0.00 | ||
| 20260506113601 | 0 | 203 | 19.0 | 23.0 | 0.00 | 0.00 | 0.00 | ||
| 20260506113025 | 0 | 203 | 19.0 | 23.0 | 0.00 | 0.00 | 0.00 | ||
| 20260506112527 | 0 | 203 | 18.0 | 22.0 | 0.00 | 0.00 | 0.00 | ||
| 20260506112021 | 0 | 203 | 18.0 | 23.0 | 0.00 | 0.00 | 0.00 | ||
| 20260506111521 | 0 | 203 | 19.0 | 24.0 | 0.00 | 0.00 | 0.00 | ||
| 20260506111022 | 0 | 203 | 19.0 | 22.0 | 0.00 | 0.00 | 0.00 | ||
| 20260506105025 | 0 | 225 | 18.0 | 24.0 | 0.00 | 0.00 | 0.00 | ||
| 20260506104521 | 0 | 225 | 18.0 | 24.0 | 0.00 | 0.00 | 0.00 | ||
| 20260506104021 | 0 | 225 | 18.0 | 23.0 | 0.00 | 0.00 | 0.00 | ||
| 20260506103541 | 0 | 225 | 18.0 | 23.0 | 0.00 | 0.00 | 0.00 | ||
| 20260506103022 | 0 | 225 | 16.0 | 22.0 | 0.00 | 0.00 | 0.00 | ||
| 20260506102525 | 0 | 225 | 16.0 | 21.0 | 0.00 | 0.00 | 0.00 | ||
| 20260506102042 | 0 | 225 | 16.0 | 20.0 | 0.00 | 0.00 | 0.00 | ||
| 20260506095021 | 0 | 225 | 14.0 | 19.0 | 0.00 | 0.00 | 0.00 | ||
| 20260506094531 | 0 | 225 | 14.0 | 20.0 | 0.00 | 0.00 | 0.00 | ||
| 20260506094022 | 0 | 225 | 14.0 | 20.0 | 0.00 | 0.00 | 0.00 | ||
| 20260506093521 | 0 | 225 | 14.0 | 19.0 | 0.00 | 0.00 | 0.00 | ||
| 20260506093021 | 0 | 225 | 15.0 | 20.0 | 0.00 | 0.00 | 0.00 | ||
| 20260506092521 | 0 | 225 | 15.0 | 21.0 | 0.00 | 0.00 | 0.00 | ||
| 20260506092021 | 0 | 225 | 12.0 | 19.0 | 0.00 | 0.00 | 0.00 | ||
| 20260506091041 | 0 | 225 | 13.0 | 20.0 | 0.00 | 0.00 | 0.00 | ||
| 20260506090521 | 0 | 225 | 13.0 | 22.0 | 0.00 | 0.00 | 0.00 | ||
| 20260506090020 | 0 | 225 | 15.0 | 22.0 | 0.00 | 0.00 | 0.00 | ||
| 20260506085619 | 0 | 225 | 14.0 | 22.0 | 0.00 | 0.00 | 0.00 | ||
| 20260506084021 | 0 | 225 | 13.0 | 21.0 | 0.00 | 0.00 | 0.00 | ||
| 20260506083524 | 0 | 225 | 13.0 | 21.0 | 0.00 | 0.00 | 0.00 | ||
| 20260506083020 | 0 | 225 | 15.0 | 23.0 | 0.00 | 0.00 | 0.00 | ||
| 20260506082521 | 0 | 225 | 13.0 | 21.0 | 0.00 | 0.00 | 0.00 | ||
| 20260506082024 | 0 | 225 | 12.0 | 20.0 | 0.00 | 0.00 | 0.00 | ||
| 20260506081021 | 0 | 225 | 14.0 | 21.0 | 0.00 | 0.00 | 0.00 | ||
| 20260506080523 | 0 | 225 | 16.0 | 22.0 | 0.00 | 0.00 | 0.00 | ||
| 20260506073521 | 0 | 225 | 15.0 | 21.0 | 0.00 | 0.00 | 0.00 | ||
| 20260506073043 | 0 | 225 | 16.0 | 21.0 | 0.00 | 0.00 | 0.00 | ||
| 20260506072544 | 0 | 225 | 15.0 | 21.0 | 0.00 | 0.00 | 0.00 | ||
| 20260506072041 | 0 | 225 | 14.0 | 21.0 | 0.00 | 0.00 | 0.00 | ||
| 20260506071522 | 0 | 225 | 15.0 | 21.0 | 0.00 | 0.00 | 0.00 | ||
| 20260506071040 | 0 | 225 | 15.0 | 20.0 | 0.00 | 0.00 | 0.00 | ||
| 20260506070521 | 0 | 225 | 16.0 | 21.0 | 0.00 | 0.00 | 0.00 | ||
| 20260506062021 | 0 | 203 | 20.0 | 24.0 | 0.00 | 0.00 | 0.00 | ||
| 20260506061020 | 0 | 203 | 20.0 | 25.0 | 0.00 | 0.00 | 0.00 | ||
| 20260506060523 | 0 | 225 | 20.0 | 25.0 | 0.00 | 0.00 | 0.00 | ||
| 20260506051041 | 0 | 225 | 17.0 | 26.0 | 0.00 | 0.00 | 0.00 | ||
| 20260506050520 | 0 | 225 | 16.0 | 24.0 | 0.00 | 0.00 | 0.00 | ||
| 20260506045021 | 0 | 203 | 18.0 | 21.0 | 0.00 | 0.00 | 0.00 | ||
| 20260506044523 | 0 | 203 | 18.0 | 21.0 | 0.00 | 0.00 | 0.00 | ||
| 20260506044058 | 0 | 203 | 18.0 | 24.0 | 0.00 | 0.00 | 0.00 | ||
| 20260506043520 | 0 | 203 | 18.0 | 21.0 | 0.00 | 0.00 | 0.00 | ||
| 20260506043024 | 0 | 203 | 18.0 | 20.0 | 0.00 | 0.00 | 0.00 | ||
| 20260506042031 | 0 | 203 | 19.0 | 22.0 | 0.00 | 0.00 | 0.00 | ||
| 20260506041601 | 0 | 203 | 20.0 | 25.0 | 0.00 | 0.00 | 0.00 | ||
| 20260506040609 | 0 | 203 | 20.0 | 24.0 | 0.00 | 0.00 | 0.00 | ||
| 20260506040044 | 0 | 203 | 20.0 | 25.0 | 0.00 | 0.00 | 0.00 | ||
| 20260506035522 | 0 | 203 | 20.0 | 26.0 | 0.00 | 0.00 | 0.00 | ||
| 20260506035022 | 0 | 203 | 21.0 | 25.0 | 0.00 | 0.00 | 0.00 | ||
| 20260506034521 | 0 | 203 | 21.0 | 27.0 | 0.00 | 0.00 | 0.00 | ||
| 20260506034021 | 0 | 203 | 21.0 | 25.0 | 0.00 | 0.00 | 0.00 | ||
| 20260506033021 | 0 | 203 | 21.0 | 24.0 | 0.00 | 0.00 | 0.00 | ||
| 20260506032521 | 0 | 203 | 20.0 | 24.0 | 0.00 | 0.00 | 0.00 | ||
| 20260506032041 | 0 | 203 | 18.0 | 22.0 | 0.00 | 0.00 | 0.00 | ||
| 20260506031528 | 0 | 203 | 18.0 | 21.0 | 0.00 | 0.00 | 0.00 | ||
| 20260506031021 | 0 | 203 | 18.0 | 20.0 | 0.00 | 0.00 | 0.00 | ||
| 20260506030522 | 0 | 203 | 18.0 | 20.0 | 0.00 | 0.00 | 0.00 | ||
| 20260506030022 | 0 | 203 | 17.0 | 21.0 | 0.00 | 0.00 | 0.00 | ||
| 20260506025521 | 0 | 203 | 16.0 | 20.0 | 0.00 | 0.00 | 0.00 | ||
| 20260506025021 | 0 | 203 | 16.0 | 18.0 | 0.00 | 0.00 | 0.00 | ||
| 20260506024521 | 0 | 203 | 17.0 | 23.0 | 0.00 | 0.00 | 0.00 | ||
| 20260506024120 | 0 | 203 | 20.0 | 23.0 | 0.00 | 0.00 | 0.00 | ||
| 20260506023521 | 0 | 203 | 20.0 | 23.0 | 0.00 | 0.00 | 0.00 | ||
| 20260506021521 | 0 | 203 | 18.0 | 21.0 | 0.00 | 0.00 | 0.00 | ||
| 20260506021021 | 0 | 203 | 18.0 | 21.0 | 0.00 | 0.00 | 0.00 | ||
| 20260506020532 | 0 | 203 | 18.0 | 22.0 | 0.00 | 0.00 | 0.00 | ||
| 20260506020023 | 0 | 203 | 19.0 | 23.0 | 0.00 | 0.00 | 0.00 | ||
| 20260506015522 | 0 | 203 | 19.0 | 22.0 | 0.00 | 0.00 | 0.00 | ||
| 20260506015021 | 0 | 203 | 20.0 | 24.0 | 0.00 | 0.00 | 0.00 | ||
| 20260506014521 | 0 | 225 | 20.0 | 25.0 | 0.00 | 0.00 | 0.00 | ||
| 20260506014021 | 0 | 225 | 19.0 | 25.0 | 0.00 | 0.00 | 0.00 | ||
| 20260506013521 | 0 | 203 | 21.0 | 26.0 | 0.00 | 0.00 | 0.00 | ||
| 20260506013021 | 0 | 203 | 22.0 | 25.0 | 0.00 | 0.00 | 0.00 | ||
| 20260506012521 | 0 | 203 | 22.0 | 27.0 | 0.00 | 0.00 | 0.00 | ||
| 20260506011020 | 0 | 203 | 23.0 | 27.0 | 0.00 | 0.00 | 0.00 | ||
| 20260506010021 | 0 | 203 | 23.0 | 27.0 | 0.00 | 0.00 | 0.00 | ||
| 20260506005522 | 0 | 203 | 23.0 | 27.0 | 0.00 | 0.00 | 0.00 | ||
| 20260506005021 | 0 | 203 | 23.0 | 28.0 | 0.00 | 0.00 | 0.00 | ||
| 20260506004602 | 0 | 203 | 22.0 | 27.0 | 0.00 | 0.00 | 0.00 | ||
| 20260506004020 | 0 | 203 | 21.0 | 26.0 | 0.00 | 0.00 | 0.00 | ||
| 20260506003520 | 0 | 203 | 21.0 | 24.0 | 0.00 | 0.00 | 0.00 | ||
| 20260506003020 | 0 | 203 | 20.0 | 24.0 | 0.00 | 0.00 | 0.00 | ||
| 20260506002558 | 0 | 203 | 22.0 | 26.0 | 0.00 | 0.00 | 0.00 | ||
| 20260506002021 | 0 | 203 | 22.0 | 26.0 | 0.00 | 0.00 | 0.00 | ||
| 20260506001521 | 0 | 203 | 22.0 | 25.0 | 0.00 | 0.00 | 0.00 | ||
| 20260506000535 | 0 | 203 | 21.0 | 27.0 | 0.00 | 0.00 | 0.00 | ||
| 20260505235521 | 0 | 203 | 20.0 | 25.0 | 0.00 | 0.00 | 0.00 | ||
| 20260505235020 | 0 | 203 | 22.0 | 26.0 | 0.00 | 0.00 | 0.00 | ||
| 20260505234521 | 0 | 203 | 22.0 | 27.0 | 0.00 | 0.00 | 0.00 | ||
| 20260505234021 | 0 | 203 | 23.0 | 27.0 | 0.00 | 0.00 | 0.00 | ||
| 20260505233521 | 56 | 203 | 24.0 | 28.0 | 0.00 | 0.00 | 0.00 | 79 | |
| 20260505232020 | 56 | 203 | 24.0 | 27.0 | 0.00 | 0.00 | 0.00 | 79 | |
| 20260505231619 | 57 | 203 | 24.0 | 28.0 | 0.00 | 0.00 | 0.00 | 78 | |
| 20260505231021 | 57 | 203 | 25.0 | 30.0 | 0.00 | 0.00 | 0.00 | 77 | |
| 20260505230521 | 57 | 203 | 26.0 | 30.0 | 0.00 | 0.00 | 0.00 | 77 | |
| 20260505230024 | 57 | 203 | 25.0 | 29.0 | 0.00 | 0.00 | 0.00 | 77 | |
| 20260505225541 | 57 | 203 | 25.0 | 31.0 | 0.00 | 0.00 | 0.00 | 76 | |
| 20260505225021 | 58 | 203 | 27.0 | 33.0 | 0.00 | 0.00 | 0.00 | 77 | |
| 20260505224520 | 57 | 203 | 26.0 | 31.0 | 0.00 | 0.00 | 0.00 | 78 | |
| 20260505224020 | 56 | 203 | 25.0 | 30.0 | 0.00 | 0.00 | 0.00 | 78 | |
| 20260505223523 | 56 | 203 | 26.0 | 33.0 | 0.00 | 0.00 | 0.00 | 79 | |
| 20260505223020 | 56 | 203 | 23.0 | 28.0 | 0.00 | 0.00 | 0.00 | 79 | |
| 20260505222520 | 56 | 203 | 22.0 | 27.0 | 0.00 | 0.00 | 0.00 | 79 | |
| 20260505222041 | 57 | 203 | 22.0 | 25.0 | 0.00 | 0.00 | 0.00 | 80 | |
| 20260505221525 | 56 | 225 | 20.0 | 27.0 | 0.00 | 0.00 | 0.00 | 80 | |
| 20260505221021 | 56 | 225 | 17.0 | 23.0 | 0.00 | 0.00 | 0.00 | 81 | |
| 20260505220538 | 56 | 225 | 16.0 | 22.0 | 0.00 | 0.00 | 0.00 | 81 | |
| 20260505220123 | 56 | 225 | 16.0 | 22.0 | 0.00 | 0.00 | 0.00 | 83 | |
| 20260505215021 | 54 | 203 | 15.0 | 18.0 | 0.00 | 0.00 | 0.00 | 84 | |
| 20260505214520 | 54 | 203 | 17.0 | 20.0 | 0.00 | 0.00 | 0.00 | 84 | |
| 20260505214021 | 54 | 203 | 18.0 | 22.0 | 0.00 | 0.00 | 0.00 | 84 | |
| 20260505213520 | 54 | 203 | 20.0 | 23.0 | 0.00 | 0.00 | 0.00 | 84 | |
| 20260505213022 | 55 | 203 | 22.0 | 26.0 | 0.00 | 0.00 | 0.00 | 84 | |
| 20260505212520 | 55 | 203 | 24.0 | 27.0 | 0.00 | 0.00 | 0.00 | 83 | |
| 20260505212044 | 55 | 203 | 25.0 | 29.0 | 0.00 | 0.00 | 0.00 | 83 | |
| 20260505211525 | 55 | 203 | 26.0 | 31.0 | 0.00 | 0.00 | 0.00 | 82 | |
| 20260505211020 | 56 | 203 | 29.0 | 33.0 | 0.00 | 0.00 | 0.00 | 82 | |
| 20260505210520 | 55 | 203 | 30.0 | 38.0 | 0.00 | 0.00 | 0.00 | 83 | |
| 20260505210020 | 55 | 203 | 29.0 | 33.0 | 0.00 | 0.00 | 0.00 | 82 | |
| 20260505205520 | 56 | 203 | 31.0 | 35.0 | 0.00 | 0.00 | 0.00 | 82 | |
| 20260505205021 | 56 | 203 | 31.0 | 37.0 | 0.00 | 0.00 | 0.00 | 82 | |
| 20260505204540 | 56 | 203 | 32.0 | 40.0 | 0.00 | 0.00 | 0.00 | 81 | |
| 20260505204020 | 56 | 203 | 34.0 | 40.0 | 0.00 | 0.00 | 0.00 | 81 | |
| 20260505203520 | 57 | 203 | 34.0 | 41.0 | 0.00 | 0.00 | 0.00 | 81 | |
| 20260505203022 | 57 | 203 | 33.0 | 38.0 | 0.00 | 0.00 | 0.00 | 81 | |
| 20260505202520 | 57 | 203 | 32.0 | 38.0 | 0.00 | 0.00 | 0.00 | 81 | |
| 20260505202020 | 57 | 203 | 34.0 | 40.0 | 0.00 | 0.00 | 0.00 | 81 | |
| 20260505201520 | 57 | 203 | 33.0 | 38.0 | 0.00 | 0.00 | 0.00 | 82 | |
| 20260505201020 | 56 | 203 | 30.0 | 35.0 | 0.00 | 0.00 | 0.00 | 82 | |
| 20260505200525 | 56 | 203 | 30.0 | 37.0 | 0.00 | 0.00 | 0.00 | 81 | |
| 20260505200022 | 57 | 203 | 32.0 | 37.0 | 0.00 | 0.00 | 0.00 | 81 | |
| 20260505195541 | 57 | 203 | 29.0 | 36.0 | 0.00 | 0.00 | 0.00 | 82 | |
| 20260505195020 | 57 | 203 | 27.0 | 33.0 | 0.00 | 0.00 | 0.00 | 82 | |
| 20260505194520 | 56 | 203 | 28.0 | 34.0 | 0.00 | 0.00 | 0.00 | 82 | |
| 20260505194025 | 56 | 203 | 28.0 | 33.0 | 0.00 | 0.00 | 0.00 | 83 | |
| 20260505193520 | 56 | 203 | 26.0 | 30.0 | 0.00 | 0.00 | 0.00 | 84 | |
| 20260505193022 | 56 | 203 | 25.0 | 30.0 | 0.00 | 0.00 | 0.00 | 84 | |
| 20260505192524 | 55 | 203 | 25.0 | 28.0 | 0.00 | 0.00 | 0.00 | 84 | |
| 20260505192023 | 55 | 203 | 25.0 | 29.0 | 0.00 | 0.00 | 0.00 | 84 | |
| 20260505191522 | 55 | 203 | 26.0 | 29.0 | 0.00 | 0.00 | 0.00 | 84 | |
| 20260505191104 | 55 | 203 | 26.0 | 31.0 | 0.00 | 0.00 | 0.00 | 84 | |
| 20260505190522 | 55 | 203 | 25.0 | 30.0 | 0.00 | 0.00 | 0.00 | 83 | |
| 20260505190021 | 56 | 203 | 27.0 | 30.0 | 0.00 | 0.00 | 0.00 | 83 | |
| 20260505185542 | 56 | 203 | 28.0 | 32.0 | 0.00 | 0.00 | 0.00 | 83 | |
| 20260505185021 | 56 | 203 | 29.0 | 33.0 | 0.00 | 0.00 | 0.00 | 83 | |
| 20260505184522 | 56 | 203 | 29.0 | 34.0 | 0.00 | 0.00 | 0.00 | 84 | |
| 20260505184022 | 56 | 203 | 28.0 | 32.0 | 0.00 | 0.00 | 0.00 | 83 | |
| 20260505183522 | 56 | 203 | 28.0 | 33.0 | 0.00 | 0.00 | 0.00 | 83 | |
| 20260505183047 | 56 | 203 | 30.0 | 34.0 | 0.00 | 0.00 | 0.00 | 83 | |
| 20260505182543 | 56 | 203 | 29.0 | 32.0 | 0.00 | 0.00 | 0.00 | 84 | |
| 20260505182022 | 56 | 203 | 28.0 | 34.0 | 0.00 | 0.00 | 0.00 | 84 | |
| 20260505181522 | 56 | 203 | 28.0 | 32.0 | 0.00 | 0.00 | 0.00 | 84 | |
| 20260505181022 | 55 | 203 | 27.0 | 31.0 | 0.00 | 0.00 | 0.00 | 84 | |
| 20260505180535 | 55 | 203 | 26.0 | 30.0 | 0.00 | 0.00 | 0.00 | 84 | |
| 20260505180024 | 55 | 203 | 24.0 | 27.0 | 0.00 | 0.00 | 0.00 | 85 | |
| 20260505175522 | 55 | 203 | 23.0 | 27.0 | 0.00 | 0.00 | 0.00 | 85 | |
| 20260505175022 | 55 | 203 | 23.0 | 27.0 | 0.00 | 0.00 | 0.00 | 85 | |
| 20260505174522 | 55 | 203 | 23.0 | 28.0 | 0.00 | 0.00 | 0.00 | 85 | |
| 20260505174022 | 55 | 203 | 22.0 | 25.0 | 0.00 | 0.00 | 0.00 | 85 | |
| 20260505173522 | 55 | 203 | 22.0 | 25.0 | 0.00 | 0.00 | 0.00 | 85 | |
| 20260505173022 | 55 | 203 | 22.0 | 26.0 | 0.00 | 0.00 | 0.00 | 85 | |
| 20260505172522 | 55 | 203 | 23.0 | 26.0 | 0.00 | 0.00 | 0.00 | 85 | |
| 20260505172022 | 55 | 203 | 23.0 | 26.0 | 0.00 | 0.00 | 0.00 | 86 | |
| 20260505171546 | 55 | 203 | 23.0 | 26.0 | 0.00 | 0.00 | 0.00 | 86 | |
| 20260505171021 | 55 | 203 | 24.0 | 28.0 | 0.00 | 0.00 | 0.00 | 86 | |
| 20260505170522 | 55 | 203 | 24.0 | 29.0 | 0.00 | 0.00 | 0.00 | 87 | |
| 20260505170021 | 54 | 203 | 17.0 | 22.0 | 0.00 | 0.00 | 0.00 | 87 | |
| 20260505165542 | 54 | 203 | 16.0 | 19.0 | 0.00 | 0.00 | 0.00 | 87 | |
| 20260505165021 | 54 | 203 | 16.0 | 20.0 | 0.00 | 0.00 | 0.00 | 87 | |
| 20260505164550 | 54 | 203 | 16.0 | 19.0 | 0.00 | 0.00 | 0.00 | 87 | |
| 20260505164021 | 54 | 203 | 14.0 | 17.0 | 0.00 | 0.00 | 0.00 | 86 | |
| 20260505163522 | 54 | 203 | 11.0 | 12.0 | 0.00 | 0.00 | 0.00 | 87 | |
| 20260505163022 | 54 | 203 | 11.0 | 13.0 | 0.00 | 0.00 | 0.00 | 87 | |
| 20260505162523 | 54 | 180 | 12.0 | 14.0 | 0.00 | 0.00 | 0.00 | 87 | |
| 20260505162022 | 54 | 180 | 13.0 | 16.0 | 0.00 | 0.00 | 0.00 | 87 | |
| 20260505161522 | 54 | 180 | 13.0 | 16.0 | 0.00 | 0.00 | 0.00 | 87 | |
| 20260505161042 | 54 | 180 | 13.0 | 15.0 | 0.00 | 0.00 | 0.00 | 87 | |
| 20260505160539 | 54 | 180 | 13.0 | 15.0 | 0.00 | 0.00 | 0.00 | 87 | |
| 20260505153021 | 53 | 203 | 11.0 | 13.0 | 0.00 | 0.00 | 0.00 | 87 | |
| 20260505152522 | 53 | 203 | 12.0 | 14.0 | 0.00 | 0.00 | 0.00 | 88 | |
| 20260505152021 | 53 | 203 | 12.0 | 14.0 | 0.00 | 0.00 | 0.00 | 88 | |
| 20260505151522 | 53 | 203 | 13.0 | 16.0 | 0.00 | 0.00 | 0.00 | 88 | |
| 20260505151021 | 53 | 203 | 13.0 | 15.0 | 0.00 | 0.00 | 0.00 | 88 | |
| 20260505150521 | 53 | 203 | 12.0 | 14.0 | 0.00 | 0.00 | 0.00 | 88 |